QFA63 YSSY-YMML

Flight info

Callsign QFA63
Flight time N/A
Altitude 40000
Route WOL H65 LEECE Q29 ML
Aircraft A332/H-SDE3GHIJ2J3J5M1RVWXY/LB2D1

Departure

Time 2026-05-05 19:18
Airport Sydney Kingsford Smith International Airport (YSSY)

Arrival

Time N/A
Airport Melbourne Airport (YMML)
Time Latitude Longitude Altitude Speed Heading
2026-05-05 19:17 -33.84593 151.02330 7868 ft 262 kts 300°
2026-05-05 19:18 -33.84114 151.00251 8690 ft 264 kts 278°
2026-05-05 19:18 -33.83856 150.98039 9409 ft 273 kts 277°
2026-05-05 19:18 -33.83765 150.95714 10198 ft 283 kts 268°
2026-05-05 19:18 -33.84128 150.93314 10674 ft 306 kts 250°
2026-05-05 19:19 -33.85293 150.91089 11190 ft 325 kts 225°
2026-05-05 19:19 -33.87235 150.89646 11948 ft 336 kts 199°
2026-05-05 19:19 -33.89557 150.89369 12783 ft 345 kts 174°
2026-05-05 19:19 -33.91832 150.90328 13623 ft 353 kts 149°
2026-05-05 19:20 -33.93767 150.92186 14392 ft 359 kts 139°
2026-05-05 19:20 -33.95692 150.94134 15112 ft 363 kts 146°
2026-05-05 19:20 -33.97906 150.95573 15840 ft 365 kts 161°
2026-05-05 19:20 -34.00367 150.96273 16571 ft 365 kts 177°
2026-05-05 19:21 -34.02874 150.96189 17303 ft 365 kts 191°
2026-05-05 19:21 -34.05360 150.95539 18057 ft 366 kts 197°
2026-05-05 19:21 -34.07838 150.94742 18734 ft 370 kts 198°
2026-05-05 19:21 -34.10345 150.93915 19319 ft 375 kts 198°
2026-05-05 19:22 -34.12877 150.93083 19925 ft 378 kts 198°
2026-05-05 19:22 -34.15431 150.92249 20520 ft 382 kts 198°
2026-05-05 19:22 -34.18013 150.91409 21107 ft 386 kts 198°
2026-05-05 19:22 -34.20617 150.90563 21687 ft 389 kts 198°
2026-05-05 19:23 -34.23245 150.89710 22269 ft 393 kts 198°
2026-05-05 19:23 -34.25900 150.88848 22836 ft 397 kts 198°
2026-05-05 19:23 -34.28575 150.87980 23403 ft 400 kts 198°
2026-05-05 19:23 -34.30005 150.87516 23691 ft 402 kts 198°
2026-05-05 19:24 -34.30071 150.87495 23712 ft 402 kts 198°
2026-05-05 19:24 -34.32785 150.86613 24180 ft 406 kts 198°
2026-05-05 19:24 -34.35532 150.85720 24635 ft 409 kts 198°
2026-05-05 19:24 -34.38286 150.84825 25098 ft 411 kts 198°
2026-05-05 19:25 -34.39349 150.84480 25266 ft 412 kts 198°
2026-05-05 19:25 -34.42059 150.83598 25707 ft 415 kts 198°
2026-05-05 19:25 -34.44863 150.82684 26162 ft 418 kts 198°
2026-05-05 19:25 -34.44984 150.82645 26182 ft 418 kts 198°
2026-05-05 19:26 -34.46400 150.82184 26388 ft 419 kts 198°
2026-05-05 19:26 -34.49012 150.81332 26807 ft 422 kts 198°
2026-05-05 19:26 -34.50492 150.80849 27044 ft 423 kts 198°
2026-05-05 19:26 -34.53344 150.79919 27483 ft 425 kts 198°
2026-05-05 19:27 -34.56209 150.78984 27902 ft 428 kts 198°
2026-05-05 19:27 -34.59098 150.78041 28313 ft 431 kts 198°
2026-05-05 19:27 -34.61999 150.77094 28720 ft 433 kts 198°
2026-05-05 19:27 -34.64926 150.76139 29120 ft 436 kts 198°
2026-05-05 19:28 -34.67874 150.75177 29520 ft 439 kts 198°
2026-05-05 19:28 -34.70827 150.74210 29929 ft 441 kts 198°
2026-05-05 19:28 -34.73798 150.73231 30287 ft 444 kts 198°
2026-05-05 19:28 -34.76785 150.72246 30616 ft 446 kts 198°
2026-05-05 19:29 -34.79798 150.71252 30943 ft 449 kts 198°
2026-05-05 19:29 -34.82819 150.70255 31268 ft 451 kts 198°
2026-05-05 19:29 -34.85817 150.69264 31575 ft 453 kts 198°
2026-05-05 19:29 -34.88864 150.68256 31888 ft 455 kts 198°
2026-05-05 19:30 -34.91920 150.67248 32299 ft 455 kts 198°
2026-05-05 19:30 -34.94978 150.66243 32762 ft 453 kts 198°
2026-05-05 19:30 -34.98023 150.65241 33185 ft 452 kts 198°
2026-05-05 19:30 -35.01061 150.64238 33600 ft 452 kts 198°
2026-05-05 19:31 -35.04090 150.63234 34019 ft 451 kts 198°
2026-05-05 19:31 -35.07110 150.62229 34388 ft 450 kts 198°
2026-05-05 19:31 -35.10138 150.61225 34699 ft 450 kts 198°
2026-05-05 19:31 -35.13162 150.60240 35029 ft 450 kts 198°
2026-05-05 19:32 -35.16193 150.59269 35322 ft 450 kts 198°
2026-05-05 19:32 -35.19231 150.58304 35605 ft 451 kts 198°
2026-05-05 19:32 -35.22240 150.57356 35881 ft 451 kts 198°
2026-05-05 19:32 -35.25255 150.56415 36157 ft 452 kts 198°
2026-05-05 19:33 -35.28301 150.55470 36432 ft 452 kts 198°
2026-05-05 19:33 -35.31361 150.54528 36730 ft 453 kts 198°
2026-05-05 19:33 -35.34341 150.53364 36991 ft 447 kts 210°
2026-05-05 19:33 -35.36920 150.51327 37254 ft 438 kts 224°
2026-05-05 19:34 -35.39148 150.48804 37534 ft 436 kts 229°
2026-05-05 19:34 -35.41302 150.46194 37824 ft 435 kts 229°